Alturas, CA

2:06 PM PDT on July 24, 2017 (GMT -0700)
Alturas Municipal

Weather History for KAAT - June, 2013

Change the Weather History Date:

Sunday, June 9, 2013

  Actual Average Record
Temperature  
Mean Temperature 71 °F 58 °F  
Max Temperature 96 °F 75 °F 96 °F (1955)
Min Temperature 46 °F 40 °F 28 °F (1982)
Degree Days  
Heating Degree Days 0 8  
Month to date heating degree days 16 77  
Since 1 June heating degree days 16 77  
Since 1 July heating degree days 6365 6834  
Cooling Degree Days 6 0  
Month to date cooling degree days 19 0  
Year to date cooling degree days 19 0  
Since 1 June cooling degree days 19 0  
Growing Degree Days 20 (Base 50)    
Moisture  
Dew Point 42 °F    
Average Humidity 48    
Maximum Humidity 82    
Minimum Humidity 13    
Precipitation  
Precipitation 0.00 in 0.05 in 0.94 in (1944)
Month to date precipitation 0.00 0.50  
Year to date precipitation 4.07 8.04  
Sea Level Pressure  
Sea Level Pressure 29.82 in    
Wind  
Wind Speed 4 mph (WNW)    
Max Wind Speed 21 mph    
Max Gust Speed 26 mph    
Visibility 10 miles    
Events      
T = Trace of Precipitation, MM = Missing Value Source: NWS Daily Summary

Daily Weather History Graph

Daily Weather History Graph

Search for Another Location

Airport or City:

Trip Planner

Search our weather history database for the weather conditions in past years. The results will help you decide how hot, cold, wet, or windy it might be!

Date:

Astronomy

Jun. 09, 2013 Rise Set
Actual Time 5:28 AM PDT 8:35 PM PDT
Civil Twilight 4:54 AM PDT 9:08 PM PDT
Nautical Twilight 4:11 AM PDT 9:52 PM PDT
Astronomical Twilight 3:20 AM PDT 10:43 PM PDT
Moon 6:30 AM PDT (6/9) 9:24 PM PDT (6/9)
Length of Visible Light 16h 14m
Length of Day
15h 06m
New Moon, 1% of the Moon is Illuminated
Jun 9
New Moon
Jun 16
First Quarter
Jun 23
Full
Jun 29
Last Quarter
Jul 8
New

Hourly Weather History & Observations

Time (PDT) Temp. Dew Point Humidity Pressure Visibility Wind Dir Wind Speed Gust Speed Precip Events Conditions
12:55 AM 57.9 °F 41.0 °F 53% 29.92 in 10.0 mi Calm Calm - N/A   Clear
1:55 AM 55.0 °F 42.1 °F 62% 29.92 in 10.0 mi Calm Calm - N/A   Clear
2:55 AM 53.1 °F 41.0 °F 64% 29.92 in 10.0 mi Calm Calm - N/A   Clear
3:55 AM 51.1 °F 41.0 °F 68% 29.91 in 10.0 mi Calm Calm - N/A   Clear
4:55 AM 51.1 °F 42.1 °F 71% 29.91 in 10.0 mi Calm Calm - N/A   Clear
5:55 AM 46.9 °F 41.0 °F 80% 29.92 in 10.0 mi Calm Calm - N/A   Clear
6:55 AM 57.9 °F 45.0 °F 62% 29.90 in 10.0 mi Calm Calm - N/A   Clear
7:55 AM 63.0 °F 46.0 °F 54% 29.89 in 10.0 mi Calm Calm - N/A   Clear
8:55 AM 70.0 °F 45.0 °F 41% 29.89 in 10.0 mi SE 3.5 mph - N/A   Clear
9:55 AM 75.9 °F 45.0 °F 33% 29.88 in 10.0 mi Variable 3.5 mph - N/A   Clear
10:55 AM 79.0 °F 48.0 °F 34% 29.86 in 10.0 mi Calm Calm - N/A   Clear
12:55 PM 91.0 °F 42.1 °F 18% 29.81 in 10.0 mi Variable 4.6 mph - N/A   Clear
1:55 PM 91.0 °F 41.0 °F 17% 29.79 in 10.0 mi West 5.8 mph - N/A   Clear
2:55 PM 93.9 °F 37.0 °F 14% 29.76 in 10.0 mi Variable 6.9 mph - N/A   Clear
3:55 PM 95.0 °F 37.9 °F 14% 29.73 in 10.0 mi North 5.8 mph - N/A   Clear
4:55 PM 91.9 °F 39.0 °F 16% 29.73 in 10.0 mi NW 8.1 mph - N/A   Clear
5:55 PM 89.1 °F 37.0 °F 16% 29.73 in 10.0 mi NNW 11.5 mph - N/A   Clear
6:55 PM 86.0 °F 39.0 °F 19% 29.72 in 10.0 mi NNW 8.1 mph - N/A   Clear
7:55 PM 82.0 °F 37.9 °F 21% 29.73 in 10.0 mi NW 4.6 mph - N/A   Clear
8:55 PM 82.0 °F 42.1 °F 24% 29.73 in 10.0 mi WNW 6.9 mph - N/A   Clear
9:55 PM 79.0 °F 43.0 °F 28% 29.76 in 10.0 mi South 16.1 mph 26.5 mph N/A   Scattered Clouds
10:55 PM 73.0 °F 44.1 °F 35% 29.75 in 10.0 mi West 5.8 mph - N/A   Clear
11:55 PM 68.0 °F 44.1 °F 42% 29.75 in 10.0 mi West 3.5 mph - N/A   Clear